| time (UTC) | temp C | wind direction | speed KPH | gust KPH | rain 1hr cm | rain 24hr cm | rain mn cm | humidity % | barometer mb |
| 20260507220735 | 11 | 337 | 4.8 | 8.0 | 0.00 | 0.00 | 0.00 | 49 | 1010.3 |
| 20260507220233 | 11 | 338 | 0.0 | 1.6 | 0.00 | 0.00 | 0.00 | 48 | 1010.2 |
| 20260507215729 | 11 | 332 | 3.2 | 3.2 | 0.00 | 0.00 | 0.00 | 48 | 1010.2 |
| 20260507215227 | 11 | 349 | 3.2 | 3.2 | 0.00 | 0.00 | 0.00 | 47 | 1010.0 |
| 20260507214724 | 12 | 319 | 8.0 | 11.3 | 0.00 | 0.00 | 0.00 | 46 | 1010.1 |
| 20260507214221 | 11 | 328 | 8.0 | 9.7 | 0.00 | 0.00 | 0.00 | 46 | 1010.1 |
| 20260507213716 | 12 | 274 | 6.4 | 9.7 | 0.00 | 0.00 | 0.00 | 46 | 1010.1 |
| 20260507213214 | 12 | 337 | 8.0 | 9.7 | 0.00 | 0.00 | 0.00 | 47 | 1010.1 |
| 20260507212709 | 12 | 343 | 3.2 | 4.8 | 0.00 | 0.00 | 0.00 | 48 | 1009.9 |
| 20260507212206 | 12 | 306 | 4.8 | 4.8 | 0.00 | 0.00 | 0.00 | 47 | 1010.1 |
| 20260507211703 | 12 | 334 | 4.8 | 8.0 | 0.00 | 0.00 | 0.00 | 48 | 1010.1 |
| 20260507211158 | 12 | 293 | 6.4 | 8.0 | 0.00 | 0.00 | 0.00 | 49 | 1010.1 |
| 20260507210656 | 12 | 219 | 3.2 | 3.2 | 0.00 | 0.00 | 0.00 | 49 | 1010.0 |
| 20260507210153 | 12 | 308 | 4.8 | 4.8 | 0.00 | 0.00 | 0.00 | 49 | 1010.0 |
| 20260507205649 | 12 | 313 | 4.8 | 4.8 | 0.00 | 0.00 | 0.00 | 51 | 1010.0 |
| 20260507205146 | 12 | 74 | 1.6 | 3.2 | 0.00 | 0.00 | 0.00 | 51 | 1009.7 |
| 20260507204642 | 12 | 71 | 1.6 | 1.6 | 0.00 | 0.00 | 0.00 | 48 | 1009.8 |
| 20260507204140 | 12 | 246 | 4.8 | 4.8 | 0.00 | 0.00 | 0.00 | 48 | 1010.0 |
| 20260507203638 | 12 | 4 | 4.8 | 11.3 | 0.00 | 0.00 | 0.00 | 49 | 1010.1 |
| 20260507203135 | 12 | 215 | 8.0 | 9.7 | 0.00 | 0.00 | 0.00 | 49 | 1009.9 |
| 20260507202631 | 13 | 327 | 6.4 | 8.0 | 0.00 | 0.00 | 0.00 | 47 | 1010.1 |
| 20260507202127 | 13 | 351 | 3.2 | 4.8 | 0.00 | 0.00 | 0.00 | 48 | 1010.0 |
| 20260507201622 | 12 | 310 | 4.8 | 4.8 | 0.00 | 0.00 | 0.00 | 49 | 1010.0 |
| 20260507201120 | 13 | 118 | 1.6 | 1.6 | 0.00 | 0.00 | 0.00 | 48 | 1009.8 |
| 20260507200615 | 12 | 320 | 6.4 | 8.0 | 0.00 | 0.00 | 0.00 | 47 | 1010.0 |
| 20260507200111 | 12 | 312 | 6.4 | 8.0 | 0.00 | 0.00 | 0.00 | 46 | 1010.1 |
| 20260507195609 | 13 | 4 | 4.8 | 8.0 | 0.00 | 0.00 | 0.00 | 48 | 1010.4 |
| 20260507195106 | 14 | 117 | 0.0 | 0.0 | 0.00 | 0.00 | 0.00 | 48 | 1010.4 |
| 20260507194602 | 13 | 323 | 6.4 | 9.7 | 0.00 | 0.00 | 0.00 | 45 | 1010.6 |
| 20260507194058 | 12 | 315 | 6.4 | 9.7 | 0.00 | 0.00 | 0.00 | 47 | 1010.6 |
| 20260507193555 | 12 | 264 | 4.8 | 8.0 | 0.00 | 0.00 | 0.00 | 48 | 1010.6 |
| 20260507193052 | 11 | 276 | 9.7 | 11.3 | 0.00 | 0.00 | 0.00 | 49 | 1010.8 |
| 20260507192548 | 12 | 355 | 4.8 | 4.8 | 0.00 | 0.00 | 0.00 | 49 | 1010.7 |
| 20260507192045 | 11 | 318 | 4.8 | 8.0 | 0.00 | 0.00 | 0.00 | 50 | 1010.4 |
| 20260507191540 | 11 | 318 | 6.4 | 8.0 | 0.00 | 0.00 | 0.00 | 51 | 1010.6 |
| 20260507191038 | 11 | 270 | 1.6 | 1.6 | 0.00 | 0.00 | 0.00 | 53 | 1010.6 |
| 20260507190535 | 11 | 332 | 3.2 | 3.2 | 0.00 | 0.00 | 0.00 | 53 | 1010.6 |
| 20260507190034 | 11 | 311 | 6.4 | 9.7 | 0.00 | 0.00 | 0.00 | 52 | 1010.7 |
| 20260507185532 | 12 | 341 | 4.8 | 8.0 | 0.00 | 0.00 | 0.00 | 52 | 1010.6 |
| 20260507185028 | 11 | 211 | 4.8 | 4.8 | 0.00 | 0.00 | 0.00 | 52 | 1010.7 |
| 20260507184526 | 12 | 303 | 4.8 | 4.8 | 0.00 | 0.00 | 0.00 | 51 | 1010.6 |
| 20260507184024 | 12 | 5 | 8.0 | 11.3 | 0.00 | 0.00 | 0.00 | 48 | 1010.9 |
| 20260507183520 | 13 | 248 | 14.5 | 17.7 | 0.00 | 0.00 | 0.00 | 46 | 1011.0 |
| 20260507183017 | 13 | 306 | 1.6 | 4.8 | 0.00 | 0.00 | 0.00 | 47 | 1010.8 |
| 20260507182513 | 13 | 288 | 6.4 | 9.7 | 0.00 | 0.00 | 0.00 | 50 | 1010.8 |
| 20260507182009 | 12 | 295 | 4.8 | 4.8 | 0.00 | 0.00 | 0.00 | 49 | 1010.7 |
| 20260507181506 | 12 | 21 | 6.4 | 9.7 | 0.00 | 0.00 | 0.00 | 48 | 1010.8 |
| 20260507181003 | 12 | 290 | 8.0 | 9.7 | 0.00 | 0.00 | 0.00 | 50 | 1010.9 |
| 20260507180459 | 12 | 311 | 3.2 | 4.8 | 0.00 | 0.00 | 0.00 | 53 | 1010.8 |
| 20260507175955 | 12 | 290 | 8.0 | 9.7 | 0.00 | 0.00 | 0.00 | 49 | 1010.6 |
| 20260507175452 | 11 | 219 | 4.8 | 9.7 | 0.00 | 0.00 | 0.00 | 53 | 1010.7 |
| 20260507174949 | 11 | 257 | 8.0 | 9.7 | 0.00 | 0.00 | 0.00 | 53 | 1010.7 |
| 20260507174446 | 12 | 178 | 11.3 | 16.1 | 0.00 | 0.00 | 0.00 | 51 | 1010.9 |
| 20260507173944 | 12 | 310 | 4.8 | 8.0 | 0.00 | 0.00 | 0.00 | 50 | 1011.0 |
| 20260507173441 | 12 | 317 | 3.2 | 8.0 | 0.00 | 0.00 | 0.00 | 52 | 1011.1 |
| 20260507172938 | 12 | 328 | 4.8 | 4.8 | 0.00 | 0.00 | 0.00 | 50 | 1011.1 |
| 20260507172434 | 11 | 254 | 3.2 | 4.8 | 0.00 | 0.00 | 0.00 | 50 | 1011.4 |
| 20260507171931 | 11 | 339 | 3.2 | 3.2 | 0.00 | 0.00 | 0.00 | 51 | 1011.4 |
| 20260507171427 | 12 | 253 | 6.4 | 8.0 | 0.00 | 0.00 | 0.00 | 49 | 1011.5 |
| 20260507170924 | 12 | 340 | 3.2 | 8.0 | 0.00 | 0.00 | 0.00 | 47 | 1011.3 |
| 20260507170420 | 11 | 28 | 8.0 | 9.7 | 0.00 | 0.00 | 0.00 | 48 | 1011.7 |
| 20260507165917 | 11 | 240 | 6.4 | 9.7 | 0.00 | 0.00 | 0.00 | 50 | 1011.4 |
| 20260507165413 | 11 | 350 | 6.4 | 9.7 | 0.00 | 0.00 | 0.00 | 48 | 1011.3 |
| 20260507164908 | 12 | 351 | 1.6 | 1.6 | 0.00 | 0.00 | 0.00 | 47 | 1011.6 |
| 20260507164406 | 11 | 58 | 3.2 | 4.8 | 0.00 | 0.00 | 0.00 | 47 | 1011.5 |
| 20260507163903 | 11 | 323 | 4.8 | 8.0 | 0.00 | 0.00 | 0.00 | 49 | 1011.6 |
| 20260507163401 | 12 | 318 | 4.8 | 4.8 | 0.00 | 0.00 | 0.00 | 49 | 1011.6 |
| 20260507162857 | 12 | 287 | 6.4 | 8.0 | 0.00 | 0.00 | 0.00 | 47 | 1011.7 |
| 20260507162352 | 11 | 299 | 4.8 | 8.0 | 0.00 | 0.00 | 0.00 | 47 | 1012.1 |
| 20260507161850 | 11 | 6 | 0.0 | 1.6 | 0.00 | 0.00 | 0.00 | 49 | 1011.9 |
| 20260507161346 | 11 | 10 | 3.2 | 3.2 | 0.00 | 0.00 | 0.00 | 51 | 1011.8 |
| 20260507160843 | 11 | 25 | 0.0 | 0.0 | 0.00 | 0.00 | 0.00 | 52 | 1011.8 |
| 20260507160338 | 11 | 351 | 3.2 | 3.2 | 0.00 | 0.00 | 0.00 | 49 | 1012.2 |
| 20260507155835 | 11 | 17 | 4.8 | 8.0 | 0.00 | 0.00 | 0.00 | 48 | 1012.1 |
| 20260507155331 | 11 | 222 | 4.8 | 8.0 | 0.00 | 0.00 | 0.00 | 49 | 1011.9 |
| 20260507154828 | 11 | 186 | 1.6 | 4.8 | 0.00 | 0.00 | 0.00 | 52 | 1012.1 |
| 20260507154325 | 11 | 53 | 0.0 | 1.6 | 0.00 | 0.00 | 0.00 | 49 | 1012.1 |
| 20260507153822 | 10 | 251 | 6.4 | 8.0 | 0.00 | 0.00 | 0.00 | 49 | 1012.2 |
| 20260507153318 | 11 | 254 | 6.4 | 9.7 | 0.00 | 0.00 | 0.00 | 49 | 1012.1 |
| 20260507152815 | 11 | 236 | 4.8 | 4.8 | 0.00 | 0.00 | 0.00 | 48 | 1012.2 |
| 20260507152311 | 11 | 0 | 0.0 | 1.6 | 0.00 | 0.00 | 0.00 | 52 | 1011.8 |
| 20260507151807 | 10 | 340 | 4.8 | 4.8 | 0.00 | 0.00 | 0.00 | 50 | 1012.1 |
| 20260507151304 | 11 | 211 | 0.0 | 1.6 | 0.00 | 0.00 | 0.00 | 53 | 1012.2 |
| 20260507150801 | 10 | 280 | 1.6 | 1.6 | 0.00 | 0.00 | 0.00 | 50 | 1011.9 |
| 20260507150257 | 11 | 310 | 4.8 | 4.8 | 0.00 | 0.00 | 0.00 | 49 | 1012.4 |
| 20260507145754 | 11 | 294 | 6.4 | 9.7 | 0.00 | 0.00 | 0.00 | 48 | 1012.3 |
| 20260507145250 | 10 | 82 | 1.6 | 3.2 | 0.00 | 0.00 | 0.00 | 49 | 1012.6 |
| 20260507144747 | 10 | 290 | 3.2 | 3.2 | 0.00 | 0.00 | 0.00 | 48 | 1012.5 |
| 20260507144245 | 9 | 293 | 4.8 | 4.8 | 0.00 | 0.00 | 0.00 | 59 | 1012.5 |
| 20260507143741 | 9 | 311 | 3.2 | 3.2 | 0.00 | 0.00 | 0.00 | 58 | 1012.8 |
| 20260507143238 | 9 | 209 | 1.6 | 4.8 | 0.00 | 0.00 | 0.00 | 59 | 1012.8 |
| 20260507142734 | 10 | 70 | 1.6 | 3.2 | 0.00 | 0.00 | 0.00 | 59 | 1012.8 |
| 20260507142231 | 9 | 271 | 4.8 | 4.8 | 0.00 | 0.00 | 0.00 | 58 | 1012.8 |
| 20260507141727 | 9 | 183 | 11.3 | 11.3 | 0.00 | 0.00 | 0.00 | 56 | 1012.8 |
| 20260507141225 | 10 | 325 | 4.8 | 8.0 | 0.00 | 0.00 | 0.00 | 57 | 1012.8 |
| 20260507140720 | 9 | 341 | 3.2 | 3.2 | 0.00 | 0.00 | 0.00 | 60 | 1013.2 |
| 20260507140218 | 10 | 327 | 4.8 | 8.0 | 0.00 | 0.00 | 0.00 | 59 | 1013.2 |
| 20260507135715 | 10 | 357 | 1.6 | 3.2 | 0.00 | 0.00 | 0.00 | 59 | 1013.2 |
| 20260507135212 | 10 | 307 | 4.8 | 4.8 | 0.00 | 0.00 | 0.00 | 54 | 1013.2 |
| 20260507134708 | 8 | 204 | 3.2 | 3.2 | 0.00 | 0.00 | 0.00 | 57 | 1013.2 |
| 20260507134205 | 9 | 9 | 4.8 | 4.8 | 0.00 | 0.00 | 0.00 | 61 | 1013.2 |
| 20260507133701 | 9 | 339 | 4.8 | 4.8 | 0.00 | 0.00 | 0.00 | 58 | 1013.2 |
| 20260507133158 | 8 | 357 | 4.8 | 4.8 | 0.00 | 0.00 | 0.00 | 59 | 1013.6 |
| 20260507132655 | 8 | 306 | 3.2 | 3.2 | 0.00 | 0.00 | 0.00 | 57 | 1013.5 |
| 20260507132151 | 8 | 295 | 4.8 | 4.8 | 0.00 | 0.00 | 0.00 | 60 | 1013.5 |
| 20260507131648 | 8 | 13 | 4.8 | 4.8 | 0.00 | 0.00 | 0.00 | 59 | 1013.5 |
| 20260507131146 | 9 | 30 | 1.6 | 1.6 | 0.00 | 0.00 | 0.00 | 58 | 1013.3 |
| 20260507130642 | 8 | 329 | 3.2 | 3.2 | 0.00 | 0.00 | 0.00 | 60 | 1013.3 |
| 20260507130140 | 8 | 13 | 3.2 | 3.2 | 0.00 | 0.00 | 0.00 | 63 | 1013.3 |
| 20260507125639 | 7 | 338 | 1.6 | 1.6 | 0.00 | 0.00 | 0.00 | 59 | 1013.5 |
| 20260507125136 | 8 | 349 | 3.2 | 3.2 | 0.00 | 0.00 | 0.00 | 64 | 1013.6 |
| 20260507124632 | 8 | 306 | 4.8 | 4.8 | 0.00 | 0.00 | 0.00 | 67 | 1013.8 |
| 20260507124130 | 7 | 343 | 0.0 | 0.0 | 0.00 | 0.00 | 0.00 | 66 | 1013.5 |
| 20260507123628 | 7 | 302 | 3.2 | 3.2 | 0.00 | 0.00 | 0.00 | 67 | 1013.3 |
| 20260507123125 | 7 | 236 | 8.0 | 9.7 | 0.00 | 0.00 | 0.00 | 67 | 1013.5 |
| 20260507122620 | 7 | 301 | 3.2 | 3.2 | 0.00 | 0.00 | 0.00 | 68 | 1013.6 |
| 20260507122116 | 7 | 5 | 1.6 | 1.6 | 0.00 | 0.00 | 0.00 | 69 | 1013.3 |
| 20260507121612 | 7 | 8 | 1.6 | 1.6 | 0.00 | 0.00 | 0.00 | 75 | 1013.5 |
| 20260507121108 | 6 | 257 | 0.0 | 0.0 | 0.00 | 0.00 | 0.00 | 78 | 1013.5 |
| 20260507120604 | 6 | 315 | 1.6 | 1.6 | 0.00 | 0.00 | 0.00 | 77 | 1013.5 |
| 20260507115557 | 6 | 343 | 0.0 | 0.0 | 0.00 | 0.00 | 0.00 | 78 | 1013.2 |
| 20260507115053 | 6 | 336 | 1.6 | 1.6 | 0.00 | 0.00 | 0.00 | 82 | 1013.3 |
| 20260507114549 | 5 | 344 | 0.0 | 0.0 | 0.00 | 0.00 | 0.00 | 84 | 1013.1 |
| 20260507114047 | 5 | 356 | 0.0 | 0.0 | 0.00 | 0.00 | 0.00 | 87 | 1013.2 |
| 20260507113544 | 5 | 1 | 0.0 | 0.0 | 0.00 | 0.00 | 0.00 | 86 | 1013.2 |
| 20260507113041 | 4 | 8 | 0.0 | 0.0 | 0.00 | 0.00 | 0.00 | 89 | 1013.0 |
| 20260507112539 | 5 | 9 | 0.0 | 0.0 | 0.00 | 0.00 | 0.00 | 91 | 1013.0 |
| 20260507112035 | 4 | 9 | 0.0 | 0.0 | 0.00 | 0.00 | 0.00 | 92 | 1013.0 |
| 20260507111532 | 3 | 9 | 0.0 | 0.0 | 0.00 | 0.00 | 0.00 | 92 | 1013.0 |
| 20260507111029 | 3 | 10 | 0.0 | 0.0 | 0.00 | 0.00 | 0.00 | 95 | 1013.0 |
| 20260507110525 | 2 | 10 | 0.0 | 0.0 | 0.00 | 0.00 | 0.00 | 95 | 1012.8 |
| 20260507110022 | 2 | 10 | 0.0 | 0.0 | 0.00 | 0.00 | 0.00 | 95 | 1012.7 |
| 20260507105519 | 2 | 10 | 0.0 | 0.0 | 0.00 | 0.00 | 0.00 | 95 | 1012.8 |
| 20260507105015 | 2 | 10 | 0.0 | 0.0 | 0.00 | 0.00 | 0.00 | 95 | 1012.8 |
| 20260507104513 | 2 | 10 | 0.0 | 0.0 | 0.00 | 0.00 | 0.00 | 95 | 1012.7 |
| 20260507104009 | 1 | 10 | 0.0 | 0.0 | 0.00 | 0.00 | 0.00 | 95 | 1012.8 |
| 20260507103505 | 2 | 10 | 0.0 | 0.0 | 0.00 | 0.00 | 0.00 | 95 | 1012.5 |
| 20260507103001 | 2 | 10 | 0.0 | 0.0 | 0.00 | 0.00 | 0.00 | 95 | 1012.7 |
| 20260507102458 | 2 | 10 | 0.0 | 0.0 | 0.00 | 0.00 | 0.00 | 95 | 1012.7 |
| 20260507101955 | 2 | 10 | 0.0 | 0.0 | 0.00 | 0.00 | 0.00 | 95 | 1012.7 |
| 20260507101450 | 2 | 10 | 0.0 | 0.0 | 0.00 | 0.00 | 0.00 | 95 | 1012.5 |
| 20260507100947 | 2 | 10 | 0.0 | 0.0 | 0.00 | 0.00 | 0.00 | 95 | 1012.7 |
| 20260507100444 | 3 | 10 | 0.0 | 0.0 | 0.00 | 0.00 | 0.00 | 95 | 1012.4 |
| 20260507095942 | 2 | 10 | 0.0 | 0.0 | 0.00 | 0.00 | 0.00 | 94 | 1012.5 |
| 20260507095440 | 2 | 11 | 0.0 | 0.0 | 0.00 | 0.00 | 0.00 | 94 | 1012.4 |
| 20260507094936 | 2 | 11 | 0.0 | 0.0 | 0.00 | 0.00 | 0.00 | 94 | 1012.5 |
| 20260507094432 | 2 | 11 | 0.0 | 0.0 | 0.00 | 0.00 | 0.00 | 94 | 1012.6 |
| 20260507093929 | 3 | 11 | 0.0 | 0.0 | 0.00 | 0.00 | 0.00 | 94 | 1012.4 |
| 20260507093427 | 3 | 11 | 0.0 | 0.0 | 0.00 | 0.00 | 0.00 | 94 | 1012.4 |
| 20260507092926 | 3 | 11 | 0.0 | 0.0 | 0.00 | 0.00 | 0.00 | 94 | 1012.4 |
| 20260507092421 | 3 | 11 | 0.0 | 0.0 | 0.00 | 0.00 | 0.00 | 94 | 1012.5 |
| 20260507091918 | 3 | 11 | 0.0 | 0.0 | 0.00 | 0.00 | 0.00 | 94 | 1012.6 |
| 20260507091415 | 3 | 11 | 0.0 | 0.0 | 0.00 | 0.00 | 0.00 | 94 | 1012.6 |
| 20260507090910 | 3 | 11 | 0.0 | 0.0 | 0.00 | 0.00 | 0.00 | 93 | 1012.5 |
| 20260507090407 | 3 | 11 | 0.0 | 0.0 | 0.00 | 0.00 | 0.00 | 92 | 1012.3 |
| 20260507085904 | 3 | 11 | 0.0 | 0.0 | 0.00 | 0.00 | 0.00 | 91 | 1012.5 |
| 20260507085401 | 4 | 12 | 0.0 | 0.0 | 0.00 | 0.00 | 0.00 | 91 | 1012.3 |
| 20260507084858 | 4 | 11 | 0.0 | 0.0 | 0.00 | 0.00 | 0.00 | 89 | 1012.3 |
| 20260507084354 | 5 | 32 | 0.0 | 0.0 | 0.00 | 0.00 | 0.00 | 89 | 1012.4 |
| 20260507083852 | 4 | 23 | 0.0 | 0.0 | 0.00 | 0.00 | 0.00 | 86 | 1012.4 |
| 20260507083348 | 5 | 48 | 0.0 | 0.0 | 0.00 | 0.00 | 0.00 | 89 | 1012.4 |
| 20260507082844 | 5 | 71 | 0.0 | 0.0 | 0.00 | 0.00 | 0.00 | 89 | 1012.4 |
| 20260507082340 | 5 | 53 | 0.0 | 0.0 | 0.00 | 0.00 | 0.00 | 88 | 1012.5 |
| 20260507081837 | 5 | 68 | 0.0 | 0.0 | 0.00 | 0.00 | 0.00 | 91 | 1012.8 |
| 20260507081333 | 5 | 68 | 0.0 | 0.0 | 0.00 | 0.00 | 0.00 | 93 | 1012.6 |
| 20260507080830 | 5 | 69 | 0.0 | 0.0 | 0.00 | 0.00 | 0.00 | 92 | 1012.6 |
| 20260507080326 | 5 | 69 | 0.0 | 0.0 | 0.00 | 0.00 | 0.00 | 90 | 1012.8 |
| 20260507075822 | 5 | 69 | 0.0 | 0.0 | 0.00 | 0.00 | 0.00 | 88 | 1012.6 |
| 20260507075318 | 5 | 70 | 0.0 | 0.0 | 0.00 | 0.00 | 0.00 | 87 | 1012.6 |
| 20260507074815 | 5 | 47 | 0.0 | 0.0 | 0.00 | 0.00 | 0.00 | 87 | 1012.5 |
| 20260507074312 | 5 | 39 | 0.0 | 0.0 | 0.00 | 0.00 | 0.00 | 88 | 1012.5 |
| 20260507073809 | 5 | 39 | 0.0 | 0.0 | 0.00 | 0.00 | 0.00 | 88 | 1012.3 |
| 20260507073306 | 5 | 40 | 0.0 | 0.0 | 0.00 | 0.00 | 0.00 | 89 | 1012.3 |
| 20260507072803 | 5 | 49 | 0.0 | 0.0 | 0.00 | 0.00 | 0.00 | 88 | 1012.4 |
| 20260507072301 | 5 | 63 | 0.0 | 0.0 | 0.00 | 0.00 | 0.00 | 89 | 1012.5 |
| 20260507071758 | 5 | 27 | 3.2 | 4.8 | 0.00 | 0.00 | 0.00 | 91 | 1012.3 |
| 20260507071254 | 5 | 21 | 0.0 | 1.6 | 0.00 | 0.00 | 0.00 | 91 | 1012.2 |
| 20260507070751 | 5 | 48 | 0.0 | 0.0 | 0.00 | 0.00 | 0.00 | 91 | 1012.2 |
| 20260507070248 | 5 | 9 | 0.0 | 1.6 | 0.00 | 0.00 | 0.00 | 91 | 1012.5 |
| 20260507065745 | 5 | 17 | 0.0 | 0.0 | 0.00 | 0.00 | 0.00 | 92 | 1012.4 |
| 20260507065241 | 5 | 34 | 0.0 | 0.0 | 0.00 | 0.00 | 0.00 | 93 | 1012.5 |
| 20260507064739 | 5 | 30 | 0.0 | 0.0 | 0.00 | 0.00 | 0.00 | 94 | 1012.3 |
| 20260507064238 | 5 | 22 | 0.0 | 0.0 | 0.00 | 0.00 | 0.00 | 95 | 1012.4 |
| 20260507063735 | 5 | 14 | 0.0 | 0.0 | 0.00 | 0.00 | 0.00 | 96 | 1012.4 |
| 20260507063231 | 5 | 26 | 0.0 | 0.0 | 0.00 | 0.00 | 0.00 | 97 | 1012.4 |
| 20260507062728 | 5 | 28 | 0.0 | 0.0 | 0.00 | 0.00 | 0.00 | 98 | 1012.2 |
| 20260507062226 | 6 | 28 | 0.0 | 1.6 | 0.00 | 0.00 | 0.00 | 98 | 1012.4 |
| 20260507061723 | 5 | 36 | 0.0 | 0.0 | 0.00 | 0.00 | 0.00 | 98 | 1012.3 |
| 20260507061221 | 5 | 37 | 0.0 | 1.6 | 0.00 | 0.00 | 0.00 | 98 | 1012.6 |
| 20260507060719 | 5 | 30 | 0.0 | 0.0 | 0.00 | 0.00 | 0.00 | 99 | 1012.7 |
| 20260507060215 | 5 | 7 | 1.6 | 1.6 | 0.00 | 0.00 | 0.00 | 99 | 1012.7 |
| 20260507055711 | 5 | 8 | 0.0 | 0.0 | 0.00 | 0.00 | 0.00 | 99 | 1012.6 |
| 20260507055207 | 6 | 6 | 1.6 | 1.6 | 0.00 | 0.00 | 0.00 | 99 | 1012.5 |
| 20260507054703 | 6 | 46 | 0.0 | 0.0 | 0.00 | 0.00 | 0.00 | 99 | 1012.6 |
| 20260507054201 | 6 | 30 | 0.0 | 0.0 | 0.00 | 0.00 | 0.00 | 99 | 1012.9 |
| 20260507053658 | 6 | 3 | 0.0 | 0.0 | 0.00 | 0.00 | 0.00 | 99 | 1012.9 |
| 20260507053156 | 6 | 4 | 0.0 | 0.0 | 0.00 | 0.00 | 0.00 | 99 | 1012.9 |
| 20260507052654 | 6 | 9 | 0.0 | 0.0 | 0.00 | 0.00 | 0.00 | 99 | 1012.9 |
| 20260507052150 | 6 | 12 | 0.0 | 0.0 | 0.00 | 0.00 | 0.00 | 99 | 1013.1 |
| 20260507051648 | 6 | 41 | 0.0 | 0.0 | 0.00 | 0.00 | 0.00 | 99 | 1013.1 |
| 20260507051144 | 6 | 346 | 0.0 | 0.0 | 0.00 | 0.00 | 0.00 | 99 | 1013.0 |
| 20260507050641 | 6 | 3 | 0.0 | 0.0 | 0.00 | 0.00 | 0.00 | 99 | 1013.1 |
| 20260507050138 | 6 | 18 | 1.6 | 1.6 | 0.00 | 0.00 | 0.00 | 99 | 1012.9 |
| 20260507045635 | 6 | 49 | 0.0 | 0.0 | 0.00 | 0.00 | 0.00 | 99 | 1012.8 |
| 20260507045132 | 6 | 8 | 0.0 | 0.0 | 0.00 | 0.00 | 0.00 | 99 | 1012.9 |
| 20260507044629 | 6 | 252 | 0.0 | 1.6 | 0.00 | 0.00 | 0.00 | 99 | 1012.9 |
| 20260507044126 | 6 | 313 | 1.6 | 1.6 | 0.00 | 0.00 | 0.00 | 99 | 1012.9 |
| 20260507043621 | 7 | 2 | 0.0 | 1.6 | 0.00 | 0.00 | 0.00 | 99 | 1012.8 |
| 20260507043119 | 7 | 344 | 1.6 | 1.6 | 0.00 | 0.00 | 0.00 | 99 | 1012.5 |
| 20260507042615 | 7 | 337 | 1.6 | 1.6 | 0.00 | 0.00 | 0.00 | 99 | 1012.7 |
| 20260507042110 | 7 | 345 | 1.6 | 1.6 | 0.00 | 0.00 | 0.00 | 99 | 1012.8 |
| 20260507041607 | 7 | 340 | 0.0 | 0.0 | 0.00 | 0.00 | 0.00 | 99 | 1013.0 |
| 20260507041104 | 7 | 322 | 1.6 | 1.6 | 0.00 | 0.00 | 0.00 | 99 | 1012.8 |
| 20260507040601 | 7 | 335 | 0.0 | 0.0 | 0.00 | 0.00 | 0.00 | 99 | 1012.6 |
| 20260507040057 | 7 | 336 | 0.0 | 0.0 | 0.00 | 0.76 | 0.76 | 99 | 1012.5 |
| 20260507035553 | 7 | 339 | 0.0 | 0.0 | 0.00 | 0.76 | 0.76 | 99 | 1012.6 |
| 20260507035049 | 7 | 340 | 0.0 | 0.0 | 0.00 | 0.76 | 0.76 | 99 | 1012.9 |
| 20260507034546 | 7 | 342 | 0.0 | 0.0 | 0.00 | 0.76 | 0.76 | 99 | 1012.8 |
| 20260507034044 | 7 | 343 | 0.0 | 0.0 | 0.00 | 0.76 | 0.76 | 99 | 1012.8 |
| 20260507033542 | 7 | 343 | 0.0 | 0.0 | 0.00 | 0.76 | 0.76 | 99 | 1012.8 |
| 20260507033039 | 7 | 344 | 0.0 | 1.6 | 0.00 | 0.76 | 0.76 | 99 | 1013.1 |
| 20260507032536 | 7 | 343 | 0.0 | 0.0 | 0.00 | 0.76 | 0.76 | 99 | 1013.2 |
| 20260507032032 | 7 | 343 | 0.0 | 0.0 | 0.00 | 0.76 | 0.76 | 99 | 1013.3 |
| 20260507031528 | 7 | 343 | 0.0 | 0.0 | 0.00 | 0.76 | 0.76 | 99 | 1013.1 |
| 20260507031026 | 7 | 344 | 0.0 | 0.0 | 0.00 | 0.76 | 0.76 | 99 | 1013.2 |
| 20260507030522 | 7 | 344 | 0.0 | 0.0 | 0.00 | 0.76 | 0.76 | 99 | 1013.0 |
| 20260507030021 | 7 | 345 | 0.0 | 0.0 | 0.00 | 0.76 | 0.76 | 99 | 1012.7 |
| 20260507025517 | 7 | 344 | 0.0 | 0.0 | 0.00 | 0.76 | 0.76 | 99 | 1012.7 |
| 20260507025015 | 7 | 345 | 0.0 | 0.0 | 0.00 | 0.76 | 0.76 | 99 | 1012.9 |
| 20260507024512 | 7 | 345 | 0.0 | 0.0 | 0.00 | 0.76 | 0.76 | 99 | 1012.9 |
| 20260507024009 | 7 | 345 | 0.0 | 0.0 | 0.00 | 0.76 | 0.76 | 99 | 1012.7 |
| 20260507023505 | 7 | 346 | 0.0 | 0.0 | 0.00 | 0.76 | 0.76 | 99 | 1012.6 |
| 20260507023002 | 7 | 330 | 0.0 | 0.0 | 0.00 | 0.76 | 0.76 | 99 | 1012.5 |
| 20260507022459 | 7 | 348 | 0.0 | 0.0 | 0.00 | 0.76 | 0.76 | 99 | 1012.6 |
| 20260507021954 | 7 | 349 | 0.0 | 0.0 | 0.00 | 0.76 | 0.76 | 99 | 1012.8 |
| 20260507021450 | 7 | 345 | 0.0 | 0.0 | 0.00 | 0.76 | 0.76 | 99 | 1012.5 |
| 20260507020947 | 7 | 343 | 0.0 | 0.0 | 0.00 | 0.76 | 0.76 | 99 | 1012.6 |
| 20260507020444 | 7 | 336 | 1.6 | 1.6 | 0.00 | 0.76 | 0.76 | 99 | 1012.6 |
| 20260507015941 | 7 | 359 | 1.6 | 1.6 | 0.00 | 0.76 | 0.76 | 99 | 1012.7 |
| 20260507015440 | 7 | 1 | 0.0 | 0.0 | 0.00 | 0.76 | 0.76 | 99 | 1012.3 |
| 20260507014936 | 7 | 353 | 0.0 | 0.0 | 0.00 | 0.76 | 0.76 | 99 | 1012.4 |
| 20260507014433 | 7 | 353 | 0.0 | 0.0 | 0.00 | 0.76 | 0.76 | 99 | 1012.4 |
| 20260507013929 | 7 | 357 | 0.0 | 0.0 | 0.00 | 0.76 | 0.76 | 99 | 1012.3 |
| 20260507013426 | 7 | 338 | 0.0 | 0.0 | 0.00 | 0.76 | 0.76 | 99 | 1012.1 |
| 20260507012924 | 7 | 333 | 1.6 | 1.6 | 0.00 | 0.76 | 0.76 | 99 | 1012.7 |
| 20260507012420 | 7 | 5 | 0.0 | 0.0 | 0.00 | 0.76 | 0.76 | 99 | 1012.2 |
| 20260507011917 | 7 | 14 | 0.0 | 0.0 | 0.00 | 0.76 | 0.76 | 99 | 1011.6 |
| 20260507011414 | 7 | 350 | 0.0 | 0.0 | 0.00 | 0.76 | 0.76 | 99 | 1011.7 |
| 20260507010914 | 7 | 350 | 0.0 | 0.0 | 0.00 | 0.76 | 0.76 | 99 | 1011.9 |
| 20260507010409 | 7 | 9 | 0.0 | 0.0 | 0.00 | 0.76 | 0.76 | 99 | 1011.9 |
| 20260507005907 | 7 | 18 | 0.0 | 0.0 | 0.00 | 0.76 | 0.76 | 99 | 1012.1 |
| 20260507005403 | 7 | 350 | 1.6 | 1.6 | 0.00 | 0.76 | 0.76 | 99 | 1012.2 |
| 20260507004900 | 7 | 14 | 0.0 | 0.0 | 0.00 | 0.76 | 0.76 | 99 | 1012.1 |
| 20260507004357 | 7 | 3 | 1.6 | 1.6 | 0.00 | 0.76 | 0.76 | 99 | 1012.2 |
| 20260507003854 | 7 | 1 | 1.6 | 1.6 | 0.00 | 0.76 | 0.76 | 99 | 1012.1 |
| 20260507003349 | 7 | 8 | 0.0 | 0.0 | 0.00 | 0.76 | 0.76 | 98 | 1012.3 |
| 20260507002845 | 7 | 351 | 1.6 | 1.6 | 0.00 | 0.76 | 0.76 | 98 | 1012.3 |
| 20260507002341 | 7 | 341 | 1.6 | 3.2 | 0.00 | 0.76 | 0.76 | 98 | 1012.2 |
| 20260507001838 | 7 | 311 | 3.2 | 3.2 | 0.00 | 0.76 | 0.76 | 98 | 1012.3 |
| 20260507001335 | 7 | 352 | 3.2 | 3.2 | 0.00 | 0.76 | 0.76 | 98 | 1012.2 |
| 20260507000832 | 7 | 352 | 1.6 | 1.6 | 0.00 | 0.76 | 0.76 | 98 | 1012.6 |
| 20260507000328 | 7 | 334 | 1.6 | 3.2 | 0.00 | 0.76 | 0.76 | 98 | 1012.7 |
| 20260506235824 | 7 | 321 | 1.6 | 3.2 | 0.00 | 0.76 | 0.76 | 98 | 1012.5 |
| 20260506235321 | 7 | 336 | 3.2 | 3.2 | 0.00 | 0.76 | 0.76 | 98 | 1012.4 |
| 20260506234817 | 7 | 6 | 1.6 | 1.6 | 0.00 | 0.76 | 0.76 | 98 | 1012.2 |
| 20260506234315 | 7 | 350 | 1.6 | 1.6 | 0.00 | 0.76 | 0.76 | 98 | 1012.2 |
| 20260506233812 | 7 | 338 | 3.2 | 3.2 | 0.00 | 0.76 | 0.76 | 98 | 1012.1 |
| 20260506233308 | 7 | 357 | 1.6 | 1.6 | 0.00 | 0.76 | 0.76 | 99 | 1012.1 |
| 20260506232805 | 7 | 329 | 3.2 | 3.2 | 0.00 | 0.76 | 0.76 | 99 | 1011.9 |
| 20260506232300 | 7 | 32 | 0.0 | 0.0 | 0.00 | 0.76 | 0.76 | 99 | 1011.6 |
| 20260506231757 | 7 | 305 | 4.8 | 4.8 | 0.00 | 0.76 | 0.76 | 99 | 1012.3 |
| 20260506231256 | 7 | 7 | 0.0 | 1.6 | 0.00 | 0.76 | 0.76 | 99 | 1012.1 |
| 20260506230753 | 7 | 257 | 0.0 | 1.6 | 0.00 | 0.76 | 0.76 | 99 | 1012.1 |
| 20260506230249 | 8 | 347 | 3.2 | 3.2 | 0.00 | 0.76 | 0.76 | 99 | 1012.1 |
| 20260506225746 | 8 | 338 | 4.8 | 4.8 | 0.00 | 0.76 | 0.76 | 99 | 1011.6 |
| 20260506225243 | 8 | 59 | 1.6 | 1.6 | 0.00 | 0.76 | 0.76 | 99 | 1011.9 |
| 20260506224739 | 8 | 359 | 1.6 | 1.6 | 0.00 | 0.76 | 0.76 | 99 | 1011.6 |
| 20260506224237 | 8 | 313 | 1.6 | 3.2 | 0.00 | 0.76 | 0.76 | 99 | 1011.7 |
| 20260506223733 | 8 | 11 | 1.6 | 1.6 | 0.00 | 0.76 | 0.76 | 99 | 1011.7 |
| 20260506223228 | 8 | 298 | 3.2 | 3.2 | 0.00 | 0.76 | 0.76 | 99 | 1011.4 |
| 20260506222726 | 8 | 3 | 0.0 | 1.6 | 0.00 | 0.76 | 0.76 | 99 | 1011.6 |
| 20260506222221 | 8 | 302 | 3.2 | 4.8 | 0.00 | 0.76 | 0.76 | 99 | 1011.6 |
| 20260506221719 | 8 | 333 | 4.8 | 4.8 | 0.00 | 0.76 | 0.76 | 99 | 1011.4 |
| 20260506221217 | 8 | 311 | 4.8 | 4.8 | 0.00 | 0.76 | 0.76 | 99 | 1011.4 |